FALCON 9 R/B (52818 NORAD) Tracking and Keplerian Element Data
This shows tracking and keplerian element data for the satellite.
Feedback or suggestion? Click here.
Element | Value |
Catalog | 52818 |
Name | FALCON 9 R/B |
Epoch Orbit | 41 |
Epoch Day | 183.41193921 |
Epoch Year | 2022 |
RAAN | 38.6456 |
Inclination | 18.7666 |
Eccentricity | 0.7691623 |
Argument of Perigee | 191.1683 |
Mean Anonmoly | 127.5621 |
Mean Motion | 1.75870311 |
Decay Rate | -1.175E-05 |
L1 | 1 52818U 22061B 22183.41193921 -.00001175 00000+0 -14233-2 0 9991 |
L2 | 2 52818 18.7666 38.6456 7691623 191.1683 127.5621 1.75870311 417 |
Live tracking and technical data element details for FALCON 9 R/B (NORAD 52818). FALCON 9 R/B can be tracked NOW for your location showing map with azimuth and elevation plus other details from your city location.
Track the satellite on the map from your city or location and see movement details for azimuth, elevation, latitude, longitude, range, height, and movement on the map or in text.
IsCatalogInMostPopularTable: catalog: 52818, numindb: 6
Update: records affected: 1
GetName: 52818 FALCON 9 R/B
Hit Count: updated at: Thu, 18 Aug 2022 20:28:16 GMT